This is the latest recevied weather packets stored in our database for station/object N9VPV. If no packets are shown the sender has not sent any weather packets the latest 10 day(s).
| Time | Temp. | Humidity | Pressure | Rain* | Wind** | Luminosity | Snow |
|---|---|---|---|---|---|---|---|
| 1777522914 | 6.11° C | 62% | 1017.4 hPa | 0 mm | - | 0 W/m² | - |
| 1777522014 | 6.67° C | 60% | 1017.3 hPa | 0 mm | - | 0 W/m² | - |
| 1777521102 | 7.22° C | 59% | 1017.3 hPa | 0 mm | - | 0 W/m² | - |
| 1777520187 | 7.78° C | 57% | 1017.3 hPa | 0 mm | - | 0 W/m² | - |
| 1777519286 | 8.33° C | 55% | 1017.3 hPa | 0 mm | - | 0 W/m² | - |
| 1777518382 | 8.89° C | 53% | 1017.4 hPa | 0 mm | - | 0 W/m² | - |
| 1777517478 | 9.44° C | 50% | 1017.4 hPa | 0 mm | - | 0 W/m² | - |
| 1777516567 | 9.44° C | 50% | 1017.3 hPa | 0 mm | - | 0 W/m² | - |
| 1777515652 | 10° C | 49% | 1017.2 hPa | 0 mm | - | 0 W/m² | - |
| 1777514750 | 10° C | 48% | 1017 hPa | 0 mm | - | 0 W/m² | - |
| 1777513844 | 10.56° C | 48% | 1016.7 hPa | 0 mm | - | 0 W/m² | - |
| 1777512932 | 11.11° C | 47% | 1016.5 hPa | 0 mm | - | 0 W/m² | - |
| 1777512032 | 11.11° C | 45% | 1016.3 hPa | 0 mm | - | 0 W/m² | - |
| 1777511131 | 11.67° C | 42% | 1016.1 hPa | 0 mm | - | 0 W/m² | - |
| 1777510226 | 12.22° C | 41% | 1015.9 hPa | 0 mm | - | 0 W/m² | - |
| 1777509324 | 12.78° C | 40% | 1015.8 hPa | 0 mm | - | 0 W/m² | - |
| 1777508424 | 12.78° C | 38% | 1015.6 hPa | 0 mm | - | 0 W/m² | - |
| 1777507523 | 13.33° C | 39% | 1015.6 hPa | 0 mm | - | 0 W/m² | - |
| 1777506624 | 13.33° C | 38% | 1015.5 hPa | 0 mm | - | 0 W/m² | - |
| 1777505720 | 13.89° C | 37% | 1015.5 hPa | 0 mm | - | 0 W/m² | - |
| 1777504819 | 13.89° C | 37% | 1015.3 hPa | 0 mm | - | 0 W/m² | - |
| 1777503915 | 14.44° C | 35% | 1015.3 hPa | 0 mm | - | 0 W/m² | - |
| 1777503014 | 15° C | 34% | 1015.4 hPa | 0 mm | - | 0 W/m² | - |
| 1777502116 | 15.56° C | 35% | 1015.4 hPa | 0 mm | - | 0 W/m² | - |
| 1777501207 | 15.56° C | 33% | 1015.3 hPa | 0 mm | - | 0 W/m² | - |
* Rain latest hour (hover to see other rain measurements)
** Current wind speed in m/s (hover to see current wind gust speed)